sat.trackr.live / text

‹ back to catalog

STARLINK-6112

NORAD 57136 · 2023-090AM

PAYLOAD ACTIVE UNKNOWN

§ Identity

Operator
Country
US
Launch date
2023-06-23
Launch site
AFETR
Launch vehicle
Mass (kg)
RCS (m²)

Purposes: comms

External: N2YO · Heavens-Above · Gunter

§ Orbital elements

Epoch: 2026-09-20T23:36:09.573696Z

Period
94.27 min
Inclination
43.0027°
Eccentricity
0.0000473
Mean motion
15.27581930 rev/d
Perigee alt
482.7 km
Apogee alt
483.4 km
Semi-major
6,861.2 km
B*
2.4405e-5
RAAN
240.2088°
Arg perigee
335.5964°
Mean anomaly
24.4866°
Rev number
18,024

§ Raw data

STARLINK-61121 57136U 23090AM  26263.98344414  .00000410  00000+0  24405-4 0  99952 57136  43.0027 240.2088 0000473 335.5964  24.4866 15.27581930180249

JSON: /api/v1/satellites/57136 · /tle

For live sub-satellite position, see the globe view (requires WebGL).

§ Visibility from observer

Set your observer location to see the next 7 days of passes ≥ 10°. The values pass through the URL so the page stays shareable.

No JS? Fill the form by hand. The geolocation button needs JavaScript.